FW8647 Weather Reports


time (UTC)temp
F
wind
direction
speed
knots
gust
knots
rain 1hr
in
rain 24hr
in
rain mn
in
humidity
%
barometer
mb
20260509102415 48 196 4.3 6.1 0.00 0.10 0.10 99 1009.3
20260509101413 48 190 1.7 2.6 0.00 0.10 0.10 99 1009.3
20260509100413 0 0.0 0.0 0.00 0.00 0.00 1009.1
20260509095413 48 195 0.0 0.9 0.00 0.10 0.10 98 1009.3
20260509094412 48 202 0.9 2.6 0.00 0.10 0.10 98 1009.4
20260509093407 48 202 1.7 7.0 0.00 0.10 0.10 98 1009.5
20260509092403 48 178 0.0 0.9 0.00 0.10 0.10 98 1009.4
20260509091403 48 228 0.0 0.0 0.00 0.10 0.10 97 1009.6
20260509090358 48 208 0.0 0.0 0.00 0.10 0.10 97 1009.6
20260509085358 48 197 0.0 0.0 0.00 0.10 0.10 97 1009.6
20260509084357 48 203 0.0 0.0 0.00 0.10 0.10 97 1009.8
20260509083357 48 227 0.0 0.0 0.00 0.10 0.10 97 1010.1
20260509082356 48 180 0.0 0.9 0.00 0.10 0.10 97 1010.1
20260509081356 48 192 1.7 5.2 0.00 0.10 0.10 96 1009.9
20260509080352 48 191 0.0 0.9 0.00 0.10 0.10 96 1009.8
20260509075352 48 182 0.0 0.0 0.00 0.10 0.10 96 1009.9
20260509074347 48 213 0.0 0.0 0.00 0.10 0.10 95 1010.2
20260509073346 48 112 0.9 2.6 0.00 0.10 0.10 95 1010.2
20260509072344 49 214 0.0 0.0 0.00 0.10 0.10 95 1010.4
20260509071344 48 152 0.0 0.0 0.00 0.10 0.10 94 1010.1
20260509070344 47 221 0.0 0.0 0.05 0.10 0.10 93 1010.2
20260509065342 47 187 0.9 2.6 0.24 0.09 0.09 94 1010.8
20260509064342 48 164 2.6 4.3 0.31 0.05 0.05 91 1011.0
20260509063341 0 0.0 0.0 0.00 0.00 0.00 1011.1
20260509062341 48 195 0.0 0.0 0.00 0.00 0.00 84 1011.2
20260509061337 48 200 0.0 0.0 0.00 0.00 0.00 80 1011.2
20260509060336 48 200 0.0 0.0 0.00 0.00 0.00 78 1011.2
20260509055332 48 161 0.0 0.0 0.00 0.00 0.00 76 1010.8
20260509054332 47 139 0.0 0.0 0.00 0.00 0.00 75 1011.3
20260509053327 47 145 0.9 1.7 0.00 0.00 0.00 74 1011.2
20260509052323 46 136 2.6 4.3 0.00 0.00 0.00 74 1011.3
20260509051319 46 173 0.0 0.9 0.00 0.00 0.00 74 1011.7
20260509050317 46 153 0.9 1.7 0.00 0.00 0.00 74 1011.8
20260509045316 46 191 0.9 1.7 0.00 0.00 0.00 73 1011.7
20260509044311 46 161 0.9 1.7 0.00 0.00 0.00 73 1011.9
20260509043309 46 153 0.0 0.0 0.00 0.00 0.00 73 1011.9
20260509042308 46 193 0.0 0.0 0.00 0.00 0.00 73 1011.8
20260509041307 47 196 0.0 0.9 0.00 0.00 0.00 72 1012.2
20260509040302 47 144 0.0 0.0 0.00 0.00 0.00 70 1012.2
20260509035305 47 191 0.0 0.0 0.00 0.00 0.00 70 1012.4
20260509034302 47 165 0.9 1.7 0.00 0.00 0.00 68 1012.2
20260509033302 47 172 0.9 1.7 0.00 0.00 0.00 67 1012.6
20260509032306 48 184 1.7 2.6 0.00 0.00 0.00 65 1012.3
20260509031257 48 152 0.0 0.0 0.00 0.00 0.00 64 1012.4
20260509030252 48 200 0.9 1.7 0.00 0.00 0.00 65 1012.4
20260509025250 48 145 1.7 2.6 0.00 0.00 0.00 65 1012.6
20260509024248 48 145 3.5 5.2 0.00 0.00 0.00 64 1012.6
20260509023248 49 160 0.0 0.0 0.00 0.00 0.00 64 1012.8
20260509022248 49 146 0.0 0.0 0.00 0.00 0.00 64 1012.7
20260509021248 49 163 0.0 0.0 0.00 0.00 0.00 65 1012.6
20260509020243 49 139 0.0 0.9 0.00 0.00 0.00 65 1012.6
20260509015239 49 179 0.0 0.0 0.00 0.00 0.00 64 1012.6
20260509014238 50 210 0.0 0.0 0.00 0.00 0.00 63 1012.3
20260509013236 50 186 0.0 0.0 0.00 0.00 0.00 62 1012.4
20260509012235 50 148 0.0 0.0 0.00 0.00 0.00 62 1012.2
20260509011230 50 151 0.0 0.0 0.00 0.00 0.00 61 1012.3
20260509010230 50 172 0.0 0.0 0.00 0.00 0.00 60 1012.2
20260509005225 51 153 0.0 1.7 0.00 0.00 0.00 59 1012.0
20260509004223 51 188 2.6 4.3 0.00 0.00 0.00 59 1012.2
20260509003218 51 205 3.5 4.3 0.00 0.00 0.00 58 1012.0
20260509002213 51 174 6.1 7.0 0.00 0.00 0.00 58 1012.1
20260509001212 52 194 1.7 5.2 0.00 0.00 0.00 57 1012.1
20260509000207 53 162 4.3 6.1 0.00 0.00 0.00 54 1011.9
20260508235206 53 169 4.3 6.1 0.00 0.00 0.00 53 1012.0
20260508234206 53 176 7.8 8.7 0.00 0.00 0.00 52 1012.0
20260508233203 53 169 7.0 7.8 0.00 0.00 0.00 51 1011.9
20260508232202 53 203 6.1 7.8 0.00 0.00 0.00 50 1011.9
20260508231157 54 204 4.3 6.1 0.00 0.00 0.00 50 1011.8
20260508230156 54 205 10.4 13.0 0.00 0.00 0.00 51 1011.9
20260508225155 55 213 4.3 6.1 0.00 0.00 0.00 49 1011.9
20260508224151 54 149 2.6 8.7 0.00 0.00 0.00 50 1011.9
20260508223146 54 191 4.3 6.1 0.00 0.00 0.00 51 1012.0
20260508222146 54 187 8.7 13.0 0.00 0.00 0.00 51 1012.0
20260508221144 55 245 3.5 7.0 0.00 0.00 0.00 49 1012.0
20260508220143 54 161 6.1 8.7 0.00 0.00 0.00 51 1012.3
20260508215142 56 195 3.5 5.2 0.00 0.00 0.00 47 1011.8
20260508214142 56 226 3.5 4.3 0.00 0.00 0.00 49 1011.9
20260508213141 55 202 5.2 7.8 0.00 0.00 0.00 49 1012.1
20260508212140 55 200 3.5 6.1 0.00 0.00 0.00 49 1012.1
20260508211137 55 182 5.2 8.7 0.00 0.00 0.00 49 1011.8
20260508210137 55 182 5.2 6.1 0.00 0.00 0.00 46 1011.9
20260508205136 55 226 2.6 4.3 0.00 0.00 0.00 45 1011.8
20260508204134 55 160 3.5 8.7 0.00 0.00 0.00 48 1011.6
20260508203132 56 180 4.3 5.2 0.00 0.00 0.00 47 1011.7
20260508202131 55 164 2.6 4.3 0.00 0.00 0.00 43 1011.9
20260508201130 55 222 3.5 6.1 0.00 0.00 0.00 44 1012.3
20260508200129 55 185 5.2 8.7 0.00 0.00 0.00 44 1012.1
20260508195128 57 114 0.0 0.0 0.00 0.00 0.00 45 1012.2
20260508194128 54 162 4.3 6.1 0.00 0.00 0.00 48 1012.5
20260508193127 56 217 4.3 6.1 0.00 0.00 0.00 47 1012.5
20260508192127 54 189 2.6 5.2 0.00 0.00 0.00 49 1012.8
20260508191126 55 233 1.7 4.3 0.00 0.00 0.00 33 1012.9
20260508190126 56 267 2.6 4.3 0.00 0.00 0.00 33 1012.8
20260508185126 56 173 2.6 4.3 0.00 0.00 0.00 31 1012.9
20260508184126 55 202 0.9 1.7 0.00 0.00 0.00 34 1012.9
20260508183124 55 339 5.2 7.8 0.00 0.00 0.00 33 1013.0
20260508182123 55 212 6.1 8.7 0.00 0.00 0.00 34 1013.3
20260508181122 54 313 2.6 5.2 0.00 0.00 0.00 34 1013.6
20260508180121 54 161 1.7 2.6 0.00 0.00 0.00 36 1013.5
20260508175120 54 291 4.3 7.8 0.00 0.00 0.00 37 1013.7
20260508174121 53 70 0.0 0.0 0.00 0.00 0.00 36 1013.5
20260508173119 53 257 0.9 1.7 0.00 0.00 0.00 37 1013.8
20260508172119 54 215 0.0 0.0 0.00 0.00 0.00 36 1013.9
20260508171118 53 343 3.5 5.2 0.00 0.00 0.00 39 1013.8
20260508170118 53 268 2.6 4.3 0.00 0.00 0.00 38 1014.1
20260508165118 52 237 0.0 0.0 0.00 0.00 0.00 40 1014.0
20260508164117 52 220 4.3 5.2 0.00 0.00 0.00 39 1013.9
20260508163117 52 225 1.7 2.6 0.00 0.00 0.00 39 1014.4
20260508162117 52 242 3.5 5.2 0.00 0.00 0.00 41 1014.5
20260508161117 51 224 0.0 0.0 0.00 0.00 0.00 44 1014.5
20260508160112 52 259 0.0 0.0 0.00 0.00 0.00 43 1014.6
20260508155112 51 287 1.7 4.3 0.00 0.00 0.00 46 1014.9
20260508154112 50 257 0.0 0.9 0.00 0.00 0.00 45 1014.6
20260508153111 50 247 0.9 1.7 0.00 0.00 0.00 45 1014.7
20260508152109 50 199 0.9 1.7 0.00 0.00 0.00 47 1014.8
20260508151109 50 273 5.2 7.8 0.00 0.00 0.00 49 1014.6
20260508150108 49 152 3.5 5.2 0.00 0.00 0.00 51 1014.9
20260508145107 48 297 0.0 0.0 0.00 0.00 0.00 51 1015.1
20260508144102 49 309 1.7 1.7 0.00 0.00 0.00 54 1015.2
20260508143102 48 244 2.6 4.3 0.00 0.00 0.00 56 1015.0
20260508142101 48 345 0.0 0.0 0.00 0.00 0.00 57 1015.1
20260508141101 48 224 0.0 0.9 0.00 0.00 0.00 61 1014.9
20260508140101 47 187 2.6 7.0 0.00 0.00 0.00 62 1014.9
20260508135058 47 249 0.9 1.7 0.00 0.00 0.00 64 1014.8
20260508134058 47 177 0.0 0.0 0.00 0.00 0.00 65 1014.8
20260508133058 46 227 1.7 2.6 0.00 0.00 0.00 69 1014.8
20260508132058 46 232 2.6 4.3 0.00 0.00 0.00 70 1014.8
20260508131057 45 234 0.9 0.9 0.00 0.00 0.00 70 1014.8
20260508130055 45 314 3.5 6.1 0.00 0.00 0.00 72 1014.7
20260508125055 45 261 0.9 2.6 0.00 0.00 0.00 72 1014.6
20260508124055 45 199 0.0 0.0 0.00 0.00 0.00 73 1014.6
20260508123050 44 198 0.0 0.0 0.00 0.00 0.00 75 1014.8
20260508122049 44 228 0.9 0.9 0.00 0.00 0.00 75 1014.7
20260508121045 44 278 0.0 0.0 0.00 0.00 0.00 76 1014.7
20260508120041 43 252 0.0 0.0 0.00 0.00 0.00 77 1014.6
20260508115039 43 215 0.9 4.3 0.00 0.00 0.00 77 1014.5
20260508114039 42 245 2.6 5.2 0.00 0.00 0.00 77 1014.4
20260508113034 42 216 0.0 0.9 0.00 0.00 0.00 78 1014.4
20260508112033 42 218 0.0 0.0 0.00 0.00 0.00 78 1014.2
20260508111032 42 242 0.0 0.0 0.00 0.00 0.00 79 1014.2
20260508110032 41 208 0.0 0.0 0.00 0.00 0.00 79 1014.3
20260508105030 41 220 0.9 1.7 0.00 0.00 0.00 79 1014.3
20260508104030 41 191 0.0 0.9 0.00 0.00 0.00 79 1014.2
20260508103025 41 221 0.0 0.0 0.00 0.00 0.00 80 1014.3